[[{"header":{"parameterUnit":"m.s-1","parameterCategory":2,"la1":30.2991,"la2":30.254,"lo1":-89.0895,"lo2":-89.0444,"dy":0.0017,"dx":0.0017,"nx":28,"ny":28,"refTime":"2024-04-02T09:00:00:Z","depth":"0","parameterNumber":2,"parameterNumberName":"U-component_of_CURRENTS"},"data":[0,0,0,0,0,0,0,0,0,0,0,0,0,0,0,0,0,0,0,0,0,0,0,0,0,0,0,0,0,0,0,0,0,0,0,0,0,0,0,0,0,0,0,0,0,0,0,0,0,0,0,0,0,0,0,0,0,0,0.233,0.233,0,0.2341,0.2341,0.2341,0.2333,0.2332,0.2332,0.2332,0.2334,0.2334,0.2335,0,0,0,0,0,0,0,0,0,0,0,0,0,0.2328,0.2327,0.233,0.233,0.233,0.2341,0.2341,0.2341,0.2333,0.2332,0.2332,0.2332,0.2334,0.2334,0.2335,0,0,0,0,0,0,0,0,0,0,0,0,0,0.2332,0.2327,0.233,0.2328,0.2328,0.2341,0.2341,0.2341,0.2333,0.2332,0.2332,0.2331,0.2334,0.2334,0.2335,0.2346,0,0,0.2336,0.2336,0,0,0,0,0,0,0,0,0.2331,0.2332,0.2328,0.2328,0.2328,0.2336,0.2342,0.2343,0.2333,0.233,0.2332,0.2331,0.2335,0.2335,0.2337,0.2346,0.2346,0.2336,0.2337,0.2337,0.2337,0,0,0,0,0,0,0,0.2331,0.2331,0.2333,0.2328,0.2328,0.2336,0.2336,0.2342,0.2333,0.233,0.233,0.2333,0.2335,0.2336,0.2337,0.2346,0.2336,0.2337,0.2337,0.2337,0.2394,0.2395,0,0,0,0,0,0,0.2331,0.2331,0.2333,0.2334,0.233,0.2337,0.2336,0.2333,0.2334,0.2334,0.2333,0.2332,0.2336,0.2336,0.2337,0.2378,0.2337,0.2337,0.2337,0.2393,0.2394,0.2395,0,0,0,0,0,0,0.2331,0.2331,0.2332,0.2334,0.2335,0.2337,0.2334,0.2333,0.2338,0.2336,0.2336,0.2338,0.2336,0.2336,0.2347,0.2376,0.2337,0.2338,0.2391,0.2393,0.2395,0.2441,0,0,0,0,0,0,0.233,0.233,0.233,0.2333,0.2335,0.2344,0.2334,0.2334,0.2341,0.234,0.234,0.234,0.2335,0.2347,0.2348,0.2376,0.2338,0.239,0.2392,0.2394,0.2438,0.2445,0.245,0,0,0,0,0,0.233,0.233,0.233,0.2331,0.2333,0.2345,0.2346,0.2346,0.2341,0.2347,0.2348,0.234,0.2362,0.2348,0.2349,0.2378,0.2388,0.2391,0.2394,0.2436,0.2443,0.245,0,0,0,0,0,0,0.2327,0.233,0.2329,0.2329,0.2339,0.2344,0.235,0.235,0.2355,0.2354,0.2349,0.2349,0.2375,0.2368,0.2352,0.2402,0.2377,0.238,0.2408,0.2416,0.2421,0.2414,0.2339,0,0,0,0,0,0.2328,0.2328,0.2336,0.2337,0.2343,0.2348,0.2353,0.2354,0.2359,0.236,0.2359,0.2366,0.2388,0.2393,0.2403,0.2424,0.2436,0.2446,0.2452,0.2457,0.2452,0.2515,0.2526,0.2404,0.2404,0.2404,0,0,0.2326,0.2329,0.2328,0.2337,0.2343,0.2356,0.2349,0.236,0.2374,0.2361,0.2374,0.2386,0.2398,0.2427,0.2438,0.2423,0.2498,0.246,0.2464,0.2457,0.2519,0.2531,0.2541,0.2406,0.2406,0.2405,0,0,0.2327,0.2327,0.2331,0.2342,0.2356,0.2364,0.2369,0.2377,0.2384,0.2405,0.2405,0.2428,0.2449,0.2464,0.2478,0.2521,0.2529,0.253,0.2551,0.2612,0.2623,0.2632,0.2661,0.2673,0.2531,0.2531,0.2531,0,0.2326,0.233,0.2336,0.2347,0.2359,0.2369,0.2383,0.2397,0.2406,0.2425,0.2416,0.2471,0.2471,0.2523,0.2532,0.2535,0.2561,0.2524,0.2621,0.263,0.2639,0.2667,0.2679,0.2533,0.2533,0.2533,0.2532,0,0.233,0.2338,0.2344,0.2362,0.2378,0.2391,0.2413,0.2431,0.2447,0.2466,0.2517,0.2526,0.2561,0.2571,0.2561,0.2627,0.2622,0.2625,0.2603,0.2655,0.268,0.2692,0.2537,0.2536,0.2535,0.2535,0,0,0.2313,0.2341,0.2343,0.2356,0.2386,0.2398,0.2436,0.2476,0.251,0.2535,0.2589,0.2617,0.2628,0.2642,0.2645,0.268,0.2755,0.2674,0.2676,0.2701,0.2879,0.2826,0.2834,0.2786,0.2788,0.279,0.287,0,0.2315,0.2334,0.2353,0.238,0.2393,0.2426,0.2463,0.2503,0.2544,0.2598,0.2637,0.2686,0.2658,0.2683,0.2719,0.2754,0.279,0.2732,0.2825,0.2827,0.2774,0.2847,0.2723,0.278,0.2882,0.2884,0.2885,0,0.2309,0.2326,0.2347,0.2393,0.2404,0.2426,0.2493,0.2526,0.2611,0.2652,0.2714,0.2748,0.2808,0.278,0.2868,0.2838,0.2856,0.2873,0.2878,0.2818,0.2797,0.2746,0.2798,0.2755,0.2903,0.2902,0.2901,0,0.2283,0.2321,0.2337,0.235,0.2404,0.243,0.2465,0.2541,0.259,0.2688,0.275,0.2824,0.2876,0.2925,0.2952,0.2927,0.3047,0.3025,0.2992,0.2988,0.2891,0.2874,0.2908,0.309,0.309,0.309,0.309,0,0.227,0.2283,0.2326,0.2333,0.2369,0.2414,0.2467,0.2522,0.2622,0.2687,0.277,0.2842,0.2919,0.2992,0.3001,0.3038,0.3097,0.3006,0.3016,0.2902,0.2886,0.2849,0.2838,0.3093,0.3092,0.3092,0.3091,0,0.2233,0.2258,0.228,0.2335,0.2352,0.2375,0.246,0.251,0.2608,0.2703,0.2745,0.2885,0.2976,0.304,0.3123,0.3099,0.3047,0.313,0.2972,0.2961,0.2859,0.2854,0.2713,0.2635,0.3106,0.3105,0.3105,0,0.2215,0.222,0.2265,0.2279,0.2301,0.2345,0.2386,0.2488,0.2546,0.2714,0.2763,0.2902,0.2968,0.3083,0.3084,0.3114,0.3028,0.3004,0.2924,0.2848,0.2852,0.2682,0.2615,0.2817,0.2814,0.2812,0.281,0,0.2187,0.22,0.222,0.2246,0.2279,0.2311,0.2373,0.2418,0.2541,0.2628,0.2739,0.2811,0.2934,0.2927,0.2982,0.2971,0.2848,0.2955,0.2933,0.2675,0.2436,0.2368,0.2755,0.2789,0.2791,0.2792,0.2794,0.2794,0.2166,0.217,0.2195,0.2209,0.2241,0.2259,0.2259,0.2336,0.2404,0.2499,0.2627,0.2688,0.2781,0.2839,0.2821,0.2739,0.2699,0.2649,0.2665,0.251,0.2378,0.2701,0.271,0.2712,0.2713,0.2715,0.2716,0,0.2134,0.2142,0.2159,0.2164,0.216,0.2198,0.2236,0.2222,0.2246,0.2362,0.2429,0.2518,0.2521,0.2582,0.2567,0.2477,0.2311,0.2415,0.2174,0.2139,0.2495,0.2428,0.2307,0.2307,0.2307,0.2307,0.2307,0.2307,0.2122,0.2114,0.2114,0.2076,0.2075,0.2036,0.203,0.2024,0.2069,0.2104,0.2153,0.2237,0.2388,0.2433,0.2355,0.2295,0.213,0.1981,0.201,0.2316,0.2339,0.236,0.2295,0.2148,0.2147,0.1503,0.1499,0.1496]},{"header":{"parameterUnit":"m.s-1","parameterCategory":2,"la1":30.2991,"la2":30.254,"lo1":-89.0895,"lo2":-89.0444,"dy":0.0017,"dx":0.0017,"nx":28,"ny":28,"refTime":"2024-04-02T09:00:00:Z","depth":"0","parameterNumber":3,"parameterNumberName":"V-component_of_CURRENTS"},"data":[0,0,0,0,0,0,0,0,0,0,0,0,0,0,0,0,0,0,0,0,0,0,0,0,0,0,0,0,0,0,0,0,0,0,0,0,0,0,0,0,0,0,0,0,0,0,0,0,0,0,0,0,0,0,0,0,0,0,0.025,0.025,0,0.0225,0.0225,0.0225,0.0201,0.0201,0.02,0.02,0.0153,0.0152,0.0151,0,0,0,0,0,0,0,0,0,0,0,0,0,0.0253,0.0253,0.025,0.025,0.0249,0.0225,0.0225,0.0225,0.0201,0.0201,0.02,0.02,0.0153,0.0152,0.0151,0,0,0,0,0,0,0,0,0,0,0,0,0,0.0242,0.0253,0.025,0.0235,0.0234,0.0226,0.0225,0.0225,0.0201,0.0201,0.02,0.02,0.0153,0.0152,0.015,0.0148,0,0,0.0146,0.0145,0,0,0,0,0,0,0,0,0.0242,0.0242,0.0238,0.0236,0.0234,0.0216,0.0209,0.0198,0.0201,0.0213,0.02,0.02,0.0173,0.0169,0.0165,0.0146,0.0144,0.0146,0.0145,0.0144,0.0144,0,0,0,0,0,0,0,0.0243,0.0242,0.024,0.0237,0.0235,0.0222,0.022,0.0207,0.0194,0.0212,0.021,0.0208,0.0171,0.0167,0.0164,0.0143,0.0146,0.0144,0.0143,0.0143,0.0134,0.0134,0,0,0,0,0,0,0.0249,0.0243,0.024,0.0239,0.0238,0.0222,0.022,0.0222,0.0195,0.0191,0.0209,0.0207,0.0169,0.0166,0.0162,0.0173,0.0144,0.0143,0.0142,0.0133,0.0134,0.0135,0,0,0,0,0,0,0.0249,0.0249,0.0241,0.0241,0.0239,0.0223,0.0225,0.0222,0.0219,0.0193,0.0188,0.021,0.0169,0.0164,0.0159,0.017,0.0142,0.014,0.0132,0.0133,0.0134,0.0185,0,0,0,0,0,0,0.025,0.025,0.0252,0.0241,0.0239,0.0244,0.0225,0.0222,0.0219,0.0217,0.0192,0.0187,0.0168,0.0161,0.0157,0.0167,0.0139,0.0131,0.0133,0.0134,0.0182,0.0187,0.0192,0,0,0,0,0,0.025,0.026,0.0253,0.0252,0.0244,0.0245,0.0243,0.0229,0.022,0.0224,0.0209,0.0188,0.0166,0.0161,0.0156,0.0166,0.0131,0.0132,0.0134,0.018,0.0186,0.0192,0,0,0,0,0,0,0.0263,0.0258,0.025,0.0258,0.0254,0.0241,0.0244,0.0234,0.0225,0.0222,0.0196,0.0191,0.0189,0.0173,0.0167,0.0168,0.0145,0.0146,0.0182,0.0188,0.0193,0.0209,0.0138,0,0,0,0,0,0.0267,0.0273,0.0265,0.0271,0.0271,0.0258,0.0256,0.0247,0.0238,0.0233,0.0217,0.0201,0.0192,0.0186,0.0173,0.0174,0.0157,0.0178,0.0183,0.0187,0.0197,0.0183,0.0188,0.014,0.014,0.014,0,0,0.0273,0.0271,0.0274,0.0274,0.0268,0.0279,0.0256,0.0257,0.0268,0.023,0.0237,0.0215,0.0196,0.0197,0.0195,0.0185,0.0191,0.0189,0.0193,0.0201,0.0186,0.019,0.0194,0.0141,0.0141,0.014,0,0,0.0294,0.0287,0.0301,0.0303,0.03,0.0294,0.0298,0.0289,0.0287,0.0291,0.0266,0.0253,0.0242,0.0228,0.0221,0.0245,0.0216,0.0241,0.0279,0.0265,0.0269,0.0273,0.0253,0.0254,0.0245,0.0245,0.0245,0,0.03,0.0317,0.0305,0.0321,0.0329,0.0306,0.0327,0.0324,0.0314,0.0319,0.0302,0.0286,0.0258,0.0266,0.0271,0.0255,0.0243,0.0258,0.0272,0.0275,0.0277,0.0257,0.0257,0.0247,0.0247,0.0247,0.0247,0,0.0334,0.0346,0.0356,0.037,0.0377,0.039,0.0388,0.0392,0.0384,0.0378,0.0382,0.0347,0.034,0.0326,0.0304,0.0312,0.0296,0.0278,0.0258,0.0285,0.0261,0.0261,0.0251,0.025,0.0249,0.0249,0,0,0.0354,0.0376,0.0379,0.0401,0.0405,0.0421,0.0439,0.0454,0.0479,0.0454,0.0486,0.0447,0.0424,0.0415,0.0382,0.0364,0.0358,0.0333,0.0331,0.0316,0.0329,0.0312,0.031,0.0345,0.0345,0.0345,0.0304,0,0.0384,0.0428,0.0429,0.0475,0.0502,0.0495,0.0522,0.053,0.0531,0.0553,0.0515,0.0527,0.0461,0.0465,0.0434,0.0385,0.036,0.037,0.0304,0.0302,0.0285,0.0311,0.0345,0.0311,0.0303,0.0303,0.0303,0,0.0419,0.0446,0.0497,0.0544,0.0556,0.058,0.0626,0.0648,0.0661,0.0664,0.0655,0.0629,0.0603,0.0549,0.0467,0.0479,0.0409,0.036,0.0357,0.0326,0.0286,0.0283,0.0311,0.0235,0.0302,0.0302,0.0302,0,0.0452,0.0498,0.0544,0.0559,0.0603,0.0631,0.0657,0.0681,0.0726,0.0742,0.0777,0.0724,0.0724,0.063,0.0516,0.0498,0.0428,0.0389,0.0304,0.0301,0.0311,0.0309,0.026,0.033,0.033,0.0331,0.0331,0,0.0489,0.0527,0.0567,0.0595,0.0665,0.0681,0.0758,0.0773,0.0824,0.0897,0.0842,0.0887,0.0746,0.0689,0.0561,0.0439,0.0458,0.032,0.0296,0.0328,0.0328,0.0245,0.0186,0.0329,0.0329,0.033,0.033,0,0.0521,0.054,0.0604,0.066,0.0684,0.074,0.0833,0.0896,0.0927,0.1026,0.1043,0.1017,0.0941,0.079,0.0644,0.0513,0.0344,0.0335,0.0379,0.036,0.0202,0.0145,0.0075,0.0035,0.0238,0.0237,0.0237,0,0.0541,0.0576,0.0656,0.0705,0.0734,0.0818,0.0888,0.0943,0.1025,0.1115,0.1178,0.1135,0.1125,0.0896,0.0667,0.0448,0.0343,0.0323,0.0286,0.0209,0.0127,0.0103,0.0072,0.0313,0.0314,0.0314,0.0314,0,0.0586,0.0613,0.0667,0.0767,0.0847,0.0946,0.105,0.1129,0.1219,0.1302,0.1392,0.139,0.1189,0.0996,0.0691,0.0527,0.0286,0.0318,0.0235,0.0184,0.0159,0.0104,0.0316,0.0315,0.0315,0.0315,0.0315,0.0315,0.0623,0.0669,0.0743,0.0839,0.0935,0.1062,0.1153,0.1277,0.1413,0.1551,0.1541,0.1572,0.1309,0.0905,0.0664,0.0298,0.0286,0.0195,0.0132,0.0114,0.0081,0.0291,0.0263,0.0263,0.0262,0.0262,0.0262,0,0.0669,0.0722,0.0813,0.0929,0.1037,0.1084,0.1257,0.1361,0.1524,0.1656,0.1726,0.1657,0.1308,0.0943,0.0453,0.0184,0.0084,0.0041,0.0022,-0.0004,0.0188,0.0198,0.016,0.016,0.016,0.016,0.016,0.016,0.0696,0.0779,0.0821,0.0989,0.1078,0.1235,0.1333,0.149,0.1622,0.1801,0.187,0.1898,0.1691,0.0784,0.0209,0.005,-0.0119,-0.0158,-0.0254,-0.0117,-0.0107,-0.0097,-0.01,-0.02,-0.02,-0.0383,-0.0385,-0.0387]}],[{"header":{"parameterUnit":"m.s-1","parameterCategory":2,"la1":30.2991,"la2":30.254,"lo1":-89.0895,"lo2":-89.0444,"dy":0.0017,"dx":0.0017,"nx":28,"ny":28,"refTime":"2024-04-02T09:00:00:Z","depth":"2","parameterNumber":2,"parameterNumberName":"U-component_of_CURRENTS"},"data":[0,0,0,0,0,0,0,0,0,0,0,0,0,0,0,0,0,0,0,0,0,0,0,0,0,0,0,0,0,0,0,0,0,0,0,0,0,0,0,0,0,0,0,0,0,0,0,0,0,0,0,0,0,0,0,0,0,0,0.2217,0.2217,0,0.2232,0.2232,0.2232,0.2232,0.2232,0.2231,0.2231,0.224,0.2241,0.2241,0,0,0,0,0,0,0,0,0,0,0,0,0,0.2208,0.2208,0.2217,0.2217,0.2217,0.2232,0.2232,0.2232,0.2232,0.2232,0.2231,0.2231,0.224,0.2241,0.2241,0,0,0,0,0,0,0,0,0,0,0,0,0,0.2215,0.2208,0.2216,0.222,0.222,0.2232,0.2232,0.2232,0.2232,0.2232,0.2231,0.2231,0.224,0.2241,0.2241,0.2247,0,0,0.2243,0.2243,0,0,0,0,0,0,0,0,0.2215,0.2215,0.2219,0.2219,0.222,0.2231,0.2232,0.2237,0.2232,0.2226,0.2231,0.2231,0.2238,0.2238,0.224,0.2248,0.2248,0.2243,0.2243,0.2243,0.2243,0,0,0,0,0,0,0,0.2214,0.2215,0.2221,0.2219,0.222,0.2228,0.2228,0.2233,0.2231,0.2227,0.2227,0.223,0.2238,0.2239,0.224,0.2248,0.2243,0.2243,0.2244,0.2244,0.2301,0.2303,0,0,0,0,0,0,0.2214,0.2214,0.2221,0.2222,0.2218,0.2228,0.2228,0.2226,0.2232,0.2233,0.2231,0.223,0.2239,0.224,0.224,0.2285,0.2243,0.2244,0.2244,0.23,0.2302,0.2303,0,0,0,0,0,0,0.2213,0.2214,0.222,0.222,0.2221,0.2228,0.2226,0.2227,0.2236,0.2235,0.2235,0.2239,0.2239,0.224,0.2253,0.2284,0.2244,0.2245,0.2299,0.2301,0.2302,0.235,0,0,0,0,0,0,0.2213,0.2213,0.2216,0.2219,0.2221,0.2234,0.2226,0.2227,0.2238,0.2238,0.2243,0.2243,0.2239,0.2253,0.2254,0.2284,0.2245,0.2297,0.23,0.2302,0.2346,0.2353,0.2358,0,0,0,0,0,0.2212,0.2214,0.2216,0.2217,0.2223,0.2234,0.2236,0.224,0.2239,0.2246,0.225,0.2243,0.2269,0.2254,0.2255,0.2286,0.2296,0.2299,0.2302,0.2344,0.2352,0.2358,0,0,0,0,0,0,0.2211,0.2215,0.2216,0.2219,0.223,0.2235,0.2243,0.2246,0.2254,0.2256,0.2252,0.2253,0.2281,0.2274,0.2258,0.231,0.2284,0.2287,0.2316,0.2323,0.2329,0.232,0.2245,0,0,0,0,0,0.2212,0.2215,0.2223,0.2227,0.2234,0.2241,0.2247,0.2251,0.2257,0.2261,0.2262,0.2272,0.2292,0.2299,0.231,0.2331,0.2341,0.2354,0.236,0.2365,0.236,0.2417,0.2428,0.2312,0.2312,0.2312,0,0,0.2212,0.2216,0.2217,0.2227,0.2236,0.2248,0.2244,0.2257,0.2272,0.2261,0.2279,0.2291,0.2303,0.2332,0.2344,0.233,0.2403,0.2369,0.2373,0.2364,0.2422,0.2433,0.2443,0.2314,0.2314,0.2313,0,0,0.2215,0.2219,0.2224,0.2235,0.2251,0.2259,0.2265,0.2275,0.2286,0.2309,0.231,0.2335,0.2357,0.2371,0.2384,0.2427,0.2434,0.2438,0.2459,0.2517,0.2527,0.2535,0.2561,0.2572,0.244,0.244,0.244,0,0.2217,0.2221,0.2229,0.224,0.2253,0.2265,0.2279,0.2294,0.2307,0.2326,0.2322,0.2377,0.2379,0.2427,0.2438,0.2441,0.2465,0.2432,0.2525,0.2534,0.2542,0.2566,0.2577,0.2443,0.2442,0.2442,0.2442,0,0.2221,0.2231,0.2238,0.2256,0.2272,0.2286,0.2309,0.2329,0.2348,0.2368,0.242,0.243,0.2466,0.2476,0.2467,0.2531,0.2526,0.2528,0.2507,0.2557,0.2579,0.259,0.2446,0.2445,0.2445,0.2444,0,0,0.2208,0.2235,0.2238,0.2251,0.2282,0.2294,0.2331,0.2371,0.2404,0.2433,0.2486,0.2516,0.253,0.2543,0.2547,0.2581,0.2653,0.2577,0.2578,0.26,0.2767,0.2708,0.2714,0.2683,0.2685,0.2687,0.2758,0,0.2211,0.223,0.2248,0.2274,0.2288,0.232,0.2356,0.2397,0.2438,0.2491,0.253,0.258,0.2557,0.2584,0.2619,0.265,0.2684,0.2632,0.2715,0.2717,0.2658,0.2726,0.2485,0.2525,0.2768,0.277,0.2772,0,0.2206,0.2222,0.2244,0.2288,0.2299,0.2322,0.2387,0.2419,0.2501,0.2542,0.2604,0.2638,0.2696,0.2673,0.2756,0.2729,0.2747,0.2762,0.2766,0.2699,0.2679,0.2515,0.2535,0.279,0.2788,0.2787,0.2786,0,0.2182,0.2219,0.2236,0.2248,0.23,0.2328,0.2363,0.2436,0.2482,0.2578,0.2636,0.2709,0.2762,0.2806,0.2833,0.2812,0.292,0.29,0.2861,0.2856,0.2658,0.2632,0.2961,0.2961,0.2961,0.2961,0.2961,0,0.2169,0.2183,0.2226,0.2234,0.227,0.2315,0.2368,0.2421,0.2516,0.2577,0.2659,0.2723,0.2802,0.2869,0.2876,0.2905,0.2965,0.2873,0.2881,0.2667,0.2642,0.2872,0.2861,0.2964,0.2963,0.2963,0.2962,0,0.2134,0.216,0.2182,0.2237,0.2255,0.228,0.2364,0.241,0.2505,0.2594,0.2635,0.2765,0.285,0.291,0.2988,0.2961,0.2991,0.2982,0.271,0.2685,0.2874,0.2864,0.295,0.2949,0.2948,0.2947,0.2946,0,0.2117,0.2123,0.217,0.2184,0.2208,0.2254,0.2293,0.2391,0.2442,0.2602,0.2643,0.2776,0.2834,0.2934,0.2918,0.2937,0.2992,0.2719,0.2628,0.2878,0.2878,0.287,0.2862,0.2381,0.2376,0.2372,0.2368,0,0.2089,0.2104,0.2123,0.2151,0.2184,0.2215,0.2275,0.2313,0.243,0.2506,0.2603,0.2669,0.2772,0.2689,0.2731,0.2702,0.2696,0.2631,0.2988,0.2425,0.2349,0.2347,0.2356,0.2329,0.2333,0.2336,0.2338,0.234,0.2068,0.2071,0.2096,0.2112,0.2144,0.2159,0.2156,0.2223,0.2277,0.235,0.2472,0.2485,0.2519,0.2463,0.2389,0.233,0.2519,0.2389,0.2399,0.2415,0.234,0.2267,0.2216,0.2219,0.2222,0.2225,0.2227,0,0.2035,0.2043,0.2058,0.2063,0.2055,0.21,0.2128,0.21,0.2105,0.2188,0.2235,0.2073,0.2026,0.206,0.1912,0.1912,0.186,0.1826,0.1732,0.1774,0.181,0.17,0.1409,0.1406,0.1404,0.1401,0,0,0.2021,0.201,0.2007,0.1965,0.1968,0.193,0.192,0.1885,0.1897,0.1855,0.1832,0.1977,0.2026,0.1709,0.1657,0.1508,0.1626,0.1442,0.2104,0.2038,0.207,0.2147,0.2028,0,0,0,0,0]},{"header":{"parameterUnit":"m.s-1","parameterCategory":2,"la1":30.2991,"la2":30.254,"lo1":-89.0895,"lo2":-89.0444,"dy":0.0017,"dx":0.0017,"nx":28,"ny":28,"refTime":"2024-04-02T09:00:00:Z","depth":"2","parameterNumber":3,"parameterNumberName":"V-component_of_CURRENTS"},"data":[0,0,0,0,0,0,0,0,0,0,0,0,0,0,0,0,0,0,0,0,0,0,0,0,0,0,0,0,0,0,0,0,0,0,0,0,0,0,0,0,0,0,0,0,0,0,0,0,0,0,0,0,0,0,0,0,0,0,0.012,0.0119,0,0.0096,0.0095,0.0095,0.0075,0.0075,0.0075,0.0075,0.0031,0.003,0.0029,0,0,0,0,0,0,0,0,0,0,0,0,0,0.0124,0.0124,0.012,0.0119,0.0119,0.0096,0.0095,0.0095,0.0075,0.0075,0.0075,0.0075,0.0032,0.003,0.0029,0,0,0,0,0,0,0,0,0,0,0,0,0,0.0112,0.0124,0.012,0.0107,0.0106,0.0096,0.0095,0.0095,0.0075,0.0075,0.0075,0.0075,0.0032,0.003,0.0029,0.0024,0,0,0.0024,0.0023,0,0,0,0,0,0,0,0,0.0113,0.0112,0.0109,0.0108,0.0106,0.0089,0.0081,0.007,0.0076,0.0086,0.0075,0.0075,0.0049,0.0046,0.0042,0.0022,0.002,0.0024,0.0023,0.0022,0.0022,0,0,0,0,0,0,0,0.0114,0.0113,0.0109,0.0109,0.0107,0.0094,0.0093,0.0079,0.0068,0.0085,0.0084,0.0082,0.0048,0.0043,0.004,0.0019,0.0024,0.0023,0.0022,0.0021,0.0012,0.0013,0,0,0,0,0,0,0.012,0.0114,0.011,0.0109,0.011,0.0094,0.0093,0.0094,0.0069,0.0065,0.0083,0.0082,0.0046,0.0042,0.0039,0.0052,0.0022,0.0021,0.002,0.0011,0.0012,0.0013,0,0,0,0,0,0,0.012,0.012,0.0111,0.0111,0.0109,0.0095,0.0097,0.0094,0.0093,0.0067,0.0063,0.0086,0.0046,0.0041,0.0036,0.0049,0.002,0.0019,0.0011,0.0012,0.0013,0.0064,0,0,0,0,0,0,0.012,0.012,0.0123,0.0112,0.0109,0.0114,0.0097,0.0094,0.0093,0.0091,0.0069,0.0064,0.0045,0.0039,0.0035,0.0046,0.0018,0.001,0.0011,0.0012,0.0062,0.0067,0.0071,0,0,0,0,0,0.0121,0.013,0.0124,0.0123,0.0114,0.0115,0.0113,0.0101,0.0093,0.0098,0.0084,0.0065,0.0044,0.0038,0.0033,0.0045,0.0009,0.0011,0.0012,0.0059,0.0066,0.0071,0,0,0,0,0,0,0.0134,0.0129,0.0121,0.0128,0.0125,0.0112,0.0115,0.0107,0.0099,0.0097,0.0072,0.0067,0.0067,0.005,0.0045,0.0046,0.0024,0.0025,0.0061,0.0067,0.0072,0.0087,0.0016,0,0,0,0,0,0.0138,0.0143,0.0135,0.0141,0.0141,0.0129,0.0127,0.012,0.0112,0.0108,0.0093,0.0078,0.0069,0.0064,0.0051,0.0052,0.0033,0.0057,0.0062,0.0066,0.0076,0.006,0.0064,0.0018,0.0018,0.0018,0,0,0.0144,0.0142,0.0144,0.0144,0.0139,0.015,0.0128,0.013,0.0142,0.0104,0.0114,0.0093,0.0073,0.0075,0.0073,0.0063,0.0068,0.0068,0.0072,0.0079,0.0062,0.0066,0.007,0.0019,0.0019,0.0019,0,0,0.0164,0.0159,0.0172,0.0173,0.0171,0.0165,0.017,0.0162,0.0162,0.0167,0.0143,0.0133,0.012,0.0108,0.01,0.0125,0.0093,0.012,0.0158,0.0143,0.0146,0.0149,0.0127,0.0127,0.0124,0.0124,0.0125,0,0.0172,0.0187,0.0176,0.0191,0.0199,0.0178,0.0199,0.0196,0.0188,0.0194,0.0179,0.0163,0.0138,0.0145,0.0151,0.0136,0.012,0.0137,0.0149,0.0152,0.0154,0.013,0.013,0.0127,0.0127,0.0127,0.0126,0,0.0204,0.0217,0.0226,0.0239,0.0247,0.0259,0.0258,0.0264,0.0258,0.0252,0.0257,0.0225,0.0218,0.0205,0.0185,0.0191,0.0173,0.0155,0.0135,0.0162,0.0135,0.0134,0.0131,0.013,0.0129,0.0129,0,0,0.0224,0.0245,0.0249,0.027,0.0275,0.029,0.0309,0.0323,0.0346,0.0326,0.0354,0.0321,0.03,0.0291,0.026,0.0242,0.0233,0.021,0.0208,0.0189,0.0196,0.0181,0.0178,0.0219,0.0219,0.0219,0.017,0,0.0254,0.0296,0.0297,0.0342,0.0367,0.0362,0.0388,0.0396,0.0397,0.0417,0.0383,0.0393,0.0335,0.0339,0.031,0.0259,0.0234,0.0248,0.0173,0.017,0.0155,0.0178,0.0186,0.0143,0.0168,0.0168,0.0168,0,0.0289,0.0314,0.0363,0.0407,0.0419,0.0443,0.0486,0.0508,0.0518,0.052,0.0512,0.0487,0.0463,0.0414,0.0332,0.0345,0.0277,0.0228,0.0224,0.0194,0.0154,0.0121,0.014,0.0166,0.0166,0.0166,0.0166,0,0.0321,0.0364,0.0409,0.0423,0.0464,0.0493,0.0518,0.054,0.058,0.0593,0.0622,0.0573,0.0572,0.0481,0.0371,0.0357,0.028,0.0245,0.0164,0.0161,0.0146,0.0142,0.0187,0.0188,0.0188,0.0188,0.0188,0,0.0356,0.0393,0.0432,0.0458,0.0526,0.0541,0.0613,0.0628,0.0672,0.0735,0.0683,0.0717,0.0591,0.053,0.0409,0.029,0.0306,0.0178,0.0153,0.0163,0.0162,0.0164,0.0162,0.0186,0.0186,0.0187,0.0187,0,0.0387,0.0406,0.0466,0.052,0.0544,0.0598,0.0683,0.0739,0.0767,0.0851,0.0867,0.0834,0.0758,0.0618,0.0476,0.0354,0.0231,0.018,0.0197,0.0175,0.0108,0.0109,0.0086,0.0086,0.0085,0.0084,0.0084,0,0.0406,0.0439,0.0516,0.0562,0.0591,0.0671,0.0734,0.0784,0.0854,0.0928,0.0978,0.0934,0.0917,0.0695,0.0482,0.0276,0.0238,0.0135,0.0104,0.0123,0.0101,0.0103,0.0105,0.0097,0.0097,0.0096,0.0096,0,0.0445,0.0472,0.0523,0.0618,0.0692,0.0784,0.0877,0.0944,0.1022,0.1092,0.1163,0.1155,0.0963,0.0759,0.0475,0.0325,0.0167,0.0122,0.0148,0.0125,0.013,0.0109,0.0111,0.0094,0.0094,0.0094,0.0094,0.0094,0.0478,0.052,0.059,0.0681,0.0771,0.0885,0.0966,0.1071,0.1187,0.1296,0.1284,0.127,0.1042,0.068,0.0428,0.0155,0.0174,0.0058,0.006,0.0062,0.0076,0.008,0.0036,0.0036,0.0036,0.0036,0.0036,0,0.052,0.0569,0.0651,0.076,0.0858,0.0908,0.1058,0.1139,0.1275,0.1367,0.1422,0.1191,0.097,0.0698,0.0308,0.0078,0.0051,-0.0017,0.0004,0.0009,0.0012,0.0024,-0.003,-0.0031,-0.0032,-0.0033,0,0,0.0542,0.0618,0.0655,0.0808,0.0895,0.1038,0.1126,0.1239,0.1329,0.1407,0.1403,0.138,0.1056,0.0753,0.0439,0.0209,0.0158,0.0152,0.0231,0.0299,0.0305,0.0082,0.0109,0,0,0,0,0]}],[{"header":{"parameterUnit":"m.s-1","parameterCategory":2,"la1":30.2991,"la2":30.254,"lo1":-89.0895,"lo2":-89.0444,"dy":0.0017,"dx":0.0017,"nx":28,"ny":28,"refTime":"2024-04-02T09:00:00:Z","depth":"4","parameterNumber":2,"parameterNumberName":"U-component_of_CURRENTS"},"data":[0,0,0,0,0,0,0,0,0,0,0,0,0,0,0,0,0,0,0,0,0,0,0,0,0,0,0,0,0,0,0,0,0,0,0,0,0,0,0,0,0,0,0,0,0,0,0,0,0,0,0,0,0,0,0,0,0,0,0.1431,0.1432,0,0.1481,0.1482,0.1482,0.153,0.1531,0.1531,0.1532,0.1594,0.1595,0.1596,0,0,0,0,0,0,0,0,0,0,0,0,0,0.1376,0.1377,0.1431,0.1432,0.1432,0.1481,0.1482,0.1482,0.153,0.1531,0.1532,0.1532,0.1594,0.1595,0.1596,0,0,0,0,0,0,0,0,0,0,0,0,0,0.1409,0.1377,0.1431,0.1463,0.1466,0.1481,0.1482,0.1482,0.153,0.1531,0.1532,0.1533,0.1594,0.1595,0.1597,0.1584,0,0,0.1601,0.1602,0,0,0,0,0,0,0,0,0.1407,0.1411,0.1458,0.1461,0.1465,0.1502,0.1486,0.1518,0.1529,0.1504,0.1532,0.1533,0.1565,0.1568,0.1574,0.1587,0.159,0.1601,0.1602,0.1603,0.1603,0,0,0,0,0,0,0,0.1405,0.1409,0.145,0.1458,0.1463,0.1475,0.1481,0.1492,0.1527,0.1507,0.1511,0.1518,0.1567,0.1572,0.1575,0.1591,0.1601,0.1603,0.1603,0.1604,0.1693,0.1695,0,0,0,0,0,0,0.14,0.1407,0.1448,0.1451,0.144,0.1475,0.1482,0.1488,0.1527,0.1534,0.1517,0.152,0.1569,0.1574,0.1578,0.1653,0.1603,0.1604,0.1605,0.1692,0.1694,0.1695,0,0,0,0,0,0,0.1399,0.1403,0.1446,0.1431,0.1438,0.1475,0.1481,0.1488,0.1526,0.1535,0.1542,0.1551,0.157,0.1576,0.1616,0.1653,0.1605,0.1606,0.169,0.1693,0.1695,0.1748,0,0,0,0,0,0,0.1397,0.1402,0.1421,0.1431,0.1439,0.1474,0.1481,0.1488,0.1527,0.1532,0.1566,0.1571,0.1571,0.1614,0.1617,0.1654,0.1607,0.1688,0.1691,0.1694,0.1744,0.1752,0.1758,0,0,0,0,0,0.1395,0.1409,0.1421,0.1427,0.1457,0.1475,0.1481,0.1509,0.1528,0.1547,0.1573,0.1572,0.1634,0.1616,0.162,0.1658,0.1687,0.169,0.1694,0.1741,0.175,0.1758,0,0,0,0,0,0,0.1397,0.1416,0.1429,0.145,0.1472,0.1484,0.151,0.1526,0.1561,0.1577,0.1585,0.1592,0.1642,0.1641,0.1621,0.1692,0.1663,0.1667,0.1697,0.1706,0.1713,0.1702,0.1609,0,0,0,0,0,0.1404,0.1423,0.1439,0.1461,0.1474,0.1498,0.1516,0.1534,0.1558,0.1577,0.1599,0.1626,0.1653,0.1673,0.169,0.1726,0.1728,0.1755,0.1762,0.1768,0.1763,0.1809,0.182,0.1706,0.1706,0.1706,0,0,0.1412,0.1426,0.1438,0.1464,0.1485,0.1505,0.1513,0.1547,0.1573,0.1576,0.1629,0.165,0.1667,0.171,0.1733,0.1719,0.1801,0.1772,0.1777,0.1768,0.1814,0.1825,0.1834,0.1709,0.1708,0.1708,0,0,0.1424,0.145,0.1466,0.1485,0.152,0.1532,0.1549,0.1578,0.1607,0.1652,0.1665,0.1707,0.1749,0.1765,0.1778,0.1832,0.1835,0.185,0.188,0.1926,0.1935,0.1943,0.1958,0.1967,0.1856,0.1856,0.1856,0,0.1437,0.1454,0.1476,0.1494,0.1516,0.1547,0.1569,0.1597,0.1639,0.1668,0.1681,0.1759,0.1772,0.1822,0.1842,0.1848,0.1867,0.1847,0.1934,0.1943,0.195,0.1963,0.1973,0.1859,0.1858,0.1858,0.1858,0,0.1447,0.1475,0.1489,0.1522,0.1548,0.1575,0.1609,0.1649,0.1692,0.1721,0.1794,0.1818,0.1866,0.1882,0.1879,0.1944,0.1937,0.1937,0.1911,0.1965,0.1975,0.1984,0.1863,0.1862,0.1861,0.186,0,0,0.1437,0.1487,0.1495,0.1517,0.1567,0.1584,0.1638,0.169,0.1735,0.1792,0.1854,0.1903,0.1932,0.1947,0.196,0.1993,0.206,0.1993,0.1994,0.2002,0.2151,0.2009,0.2005,0.2087,0.2089,0.2091,0.2136,0,0.1443,0.1477,0.1505,0.1549,0.1569,0.1618,0.1664,0.172,0.1777,0.1844,0.1896,0.1959,0.1954,0.1993,0.2028,0.2056,0.2087,0.2046,0.2101,0.2102,0.1966,0.2012,0.2097,0.2142,0.2144,0.2146,0.2147,0,0.1436,0.1464,0.1504,0.1564,0.1581,0.1619,0.1702,0.1746,0.1841,0.1894,0.1969,0.2013,0.208,0.2068,0.2145,0.2127,0.2142,0.2153,0.2156,0.2007,0.1976,0.2079,0.2162,0.2161,0.216,0.2159,0.2158,0,0.1401,0.146,0.1495,0.1514,0.1587,0.1631,0.1682,0.1771,0.182,0.1934,0.1992,0.2075,0.2136,0.2176,0.2206,0.2194,0.2277,0.2262,0.2143,0.2133,0.2224,0.2215,0.2312,0.2312,0.2312,0.2312,0.2311,0,0.1375,0.1407,0.1489,0.1505,0.1561,0.1624,0.1696,0.1761,0.1862,0.1921,0.2021,0.2075,0.2172,0.2229,0.2237,0.2212,0.2309,0.2145,0.2138,0.2244,0.2237,0.223,0.222,0.2313,0.2313,0.2313,0.2312,0,0.1323,0.1375,0.1419,0.151,0.1543,0.1587,0.1695,0.1741,0.1853,0.1935,0.198,0.2106,0.2177,0.224,0.2307,0.2238,0.2235,0.2203,0.2306,0.2305,0.205,0.2043,0.2064,0.2059,0.2055,0.2052,0.2049,0,0.1294,0.1313,0.1412,0.1443,0.149,0.1565,0.1613,0.1726,0.1769,0.1929,0.1954,0.2079,0.2146,0.2123,0.2198,0.2202,0.2177,0.2148,0.2091,0.2035,0.2027,0.2026,0.2024,0.2043,0.2042,0.2041,0.204,0,0.1241,0.1291,0.133,0.1393,0.1449,0.1493,0.157,0.1589,0.1714,0.1836,0.1883,0.1922,0.1996,0.2035,0.2059,0.2057,0.2149,0.2107,0.2114,0.206,0.201,0.2006,0.2009,0.2026,0.2028,0.203,0.203,0,0.121,0.1224,0.1285,0.1326,0.1388,0.1397,0.1447,0.1493,0.1548,0.1715,0.1728,0.1859,0.1978,0.1961,0.1982,0.1971,0.1933,0.185,0.187,0.1885,0.1805,0.1714,0.1633,0,0,0,0,0,0.1173,0.1177,0.121,0.1238,0.1292,0.1325,0.1405,0.1456,0.1575,0.1562,0.1637,0.1696,0.1735,0.1801,0.1754,0.1899,0.194,0.1833,0.1854,0.1952,0.1967,0.1888,0,0,0,0,0,0,0.1147,0.1181,0.118,0.1153,0.1156,0.1195,0.1241,0.1321,0.1313,0.145,0.1483,0.1585,0.1654,0.1752,0.1723,0.174,0.1712,0.1913,0.1908,0.1943,0.1957,0.197,0.1894,0,0,0,0,0]},{"header":{"parameterUnit":"m.s-1","parameterCategory":2,"la1":30.2991,"la2":30.254,"lo1":-89.0895,"lo2":-89.0444,"dy":0.0017,"dx":0.0017,"nx":28,"ny":28,"refTime":"2024-04-02T09:00:00:Z","depth":"4","parameterNumber":3,"parameterNumberName":"V-component_of_CURRENTS"},"data":[0,0,0,0,0,0,0,0,0,0,0,0,0,0,0,0,0,0,0,0,0,0,0,0,0,0,0,0,0,0,0,0,0,0,0,0,0,0,0,0,0,0,0,0,0,0,0,0,0,0,0,0,0,0,0,0,0,0,0.0014,0.0014,0,-0.0004,-0.0004,-0.0004,-0.002,-0.002,-0.002,-0.002,-0.0055,-0.0056,-0.0057,0,0,0,0,0,0,0,0,0,0,0,0,0,0.002,0.002,0.0014,0.0014,0.0014,-0.0004,-0.0004,-0.0004,-0.002,-0.002,-0.002,-0.002,-0.0055,-0.0056,-0.0057,0,0,0,0,0,0,0,0,0,0,0,0,0,0.0011,0.002,0.0014,0.0004,0.0003,-0.0003,-0.0004,-0.0004,-0.002,-0.002,-0.002,-0.002,-0.0055,-0.0056,-0.0057,-0.006,0,0,-0.006,-0.0061,0,0,0,0,0,0,0,0,0.0011,0.0011,0.0006,0.0005,0.0004,-0.0009,-0.0015,-0.0023,-0.002,-0.0011,-0.002,-0.0021,-0.0041,-0.0043,-0.0046,-0.0061,-0.0063,-0.0061,-0.0061,-0.0062,-0.0062,0,0,0,0,0,0,0,0.0012,0.0011,0.0007,0.0006,0.0004,-0.0004,-0.0006,-0.0016,-0.0025,-0.0012,-0.0013,-0.0015,-0.0042,-0.0045,-0.0047,-0.0063,-0.0061,-0.0062,-0.0062,-0.0063,-0.0069,-0.0068,0,0,0,0,0,0,0.0016,0.0012,0.0007,0.0006,0.0008,-0.0004,-0.0006,-0.0005,-0.0025,-0.0028,-0.0014,-0.0015,-0.0043,-0.0046,-0.0049,-0.0037,-0.0062,-0.0063,-0.0064,-0.0069,-0.0068,-0.0068,0,0,0,0,0,0,0.0016,0.0016,0.0008,0.0009,0.0007,-0.0004,-0.0003,-0.0005,-0.0007,-0.0026,-0.003,-0.0013,-0.0043,-0.0047,-0.005,-0.0039,-0.0063,-0.0065,-0.007,-0.0069,-0.0068,-0.0024,0,0,0,0,0,0,0.0017,0.0016,0.0018,0.0009,0.0007,0.001,-0.0003,-0.0006,-0.0007,-0.0008,-0.0026,-0.003,-0.0044,-0.0048,-0.0051,-0.0041,-0.0065,-0.0071,-0.0069,-0.0068,-0.0026,-0.0022,-0.0018,0,0,0,0,0,0.0017,0.0023,0.0018,0.0017,0.001,0.0011,0.0009,-0.0,-0.0007,-0.0003,-0.0013,-0.0029,-0.0044,-0.0049,-0.0052,-0.0042,-0.0071,-0.007,-0.0069,-0.0028,-0.0023,-0.0018,0,0,0,0,0,0,0.0026,0.0022,0.0016,0.002,0.0018,0.0009,0.001,0.0004,-0.0002,-0.0004,-0.0023,-0.0027,-0.0026,-0.0039,-0.0044,-0.0041,-0.006,-0.0059,-0.0028,-0.0023,-0.0019,-0.0006,-0.0066,0,0,0,0,0,0.0029,0.0032,0.0026,0.003,0.003,0.0021,0.0019,0.0014,0.0008,0.0005,-0.0007,-0.0018,-0.0024,-0.0027,-0.0037,-0.0035,-0.0054,-0.0031,-0.0027,-0.0023,-0.0015,-0.0033,-0.003,-0.0064,-0.0064,-0.0064,0,0,0.0033,0.0031,0.0032,0.0032,0.0028,0.0037,0.0019,0.0021,0.0032,0.0002,0.0011,-0.0006,-0.002,-0.0017,-0.0018,-0.0027,-0.0025,-0.0022,-0.0018,-0.0012,-0.0031,-0.0028,-0.0025,-0.0063,-0.0063,-0.0063,0,0,0.0047,0.0042,0.0051,0.0053,0.0052,0.0049,0.0052,0.0046,0.0047,0.0053,0.0034,0.0028,0.0019,0.0011,0.0006,0.0027,-0.0003,0.0022,0.0054,0.0037,0.0039,0.0041,0.0017,0.0016,0.0025,0.0025,0.0026,0,0.0052,0.0064,0.0054,0.0066,0.0074,0.0058,0.0076,0.0075,0.007,0.0074,0.0063,0.0052,0.0035,0.0042,0.0049,0.0037,0.0018,0.0037,0.0042,0.0044,0.0045,0.0019,0.0018,0.0028,0.0027,0.0027,0.0027,0,0.0076,0.0086,0.0093,0.0105,0.0112,0.0122,0.0124,0.013,0.0126,0.0123,0.0128,0.0105,0.01,0.0092,0.0077,0.0082,0.0062,0.0048,0.003,0.0051,0.0023,0.0021,0.0031,0.003,0.003,0.0029,0,0,0.0087,0.0106,0.0109,0.0126,0.0134,0.0146,0.0165,0.0179,0.0196,0.0184,0.0203,0.0186,0.0168,0.0162,0.0138,0.0123,0.011,0.0093,0.0091,0.007,0.0066,0.0053,0.0049,0.0095,0.0095,0.0095,0.004,0,0.0109,0.0142,0.0146,0.0184,0.0203,0.0203,0.0226,0.0236,0.0238,0.025,0.0228,0.0234,0.0197,0.0197,0.0175,0.0129,0.0108,0.0126,0.0048,0.0045,0.0033,0.0048,0.0095,0.0038,0.0038,0.0037,0.0037,0,0.0134,0.0154,0.0194,0.0231,0.024,0.0262,0.0298,0.0317,0.0326,0.0326,0.0322,0.0301,0.0283,0.0249,0.0179,0.0192,0.0136,0.0094,0.0091,0.0065,0.003,0.0013,0.0033,0.0034,0.0034,0.0034,0.0034,0,0.0152,0.019,0.0226,0.0238,0.0274,0.0299,0.0321,0.034,0.0368,0.0378,0.0393,0.0359,0.0352,0.0281,0.0193,0.0187,0.011,0.0088,0.0023,0.0021,0.0028,0.0026,0.0041,0.0041,0.0041,0.0041,0.0041,0,0.0175,0.0205,0.024,0.026,0.0313,0.033,0.0384,0.0399,0.0429,0.0468,0.0436,0.0451,0.0361,0.0306,0.0214,0.0114,0.0123,0.0034,0.0011,0.0047,0.0048,0.0026,0.0025,0.0039,0.0039,0.004,0.004,0,0.0189,0.0209,0.0255,0.0301,0.0323,0.0363,0.043,0.0467,0.049,0.054,0.055,0.0522,0.0454,0.0351,0.0235,0.015,0.005,0.001,0.0058,0.0036,-0.0035,-0.0033,-0.0064,-0.0065,-0.0065,-0.0066,-0.0066,0,0.0197,0.0221,0.0284,0.0319,0.0345,0.0407,0.0452,0.0494,0.0538,0.0583,0.0609,0.0569,0.0533,0.0368,0.0244,0.0071,0.0041,-0.0021,-0.0028,-0.0023,-0.0043,-0.004,-0.0038,-0.0067,-0.0068,-0.0068,-0.0068,0,0.0211,0.0234,0.0272,0.0344,0.0399,0.0467,0.0535,0.0569,0.0626,0.0646,0.0669,0.0596,0.0518,0.0381,0.0248,0.012,0.0014,-0.0029,-0.0028,-0.0035,-0.0028,-0.0047,-0.0043,-0.007,-0.007,-0.007,-0.007,0,0.0223,0.025,0.0301,0.0368,0.0437,0.0508,0.0544,0.0605,0.0651,0.07,0.0703,0.0628,0.0588,0.0406,0.0281,0.0157,0.0118,0.0062,0.0057,0.0058,0.0104,0.0131,0.0125,0,0,0,0,0,0.0235,0.0268,0.0323,0.0397,0.0465,0.0512,0.0593,0.0626,0.0677,0.0703,0.071,0.0643,0.0483,0.0415,0.0291,0.0241,0.0075,0.0087,0.0002,-0.0083,-0.008,-0.0049,0,0,0,0,0,0,0.0242,0.0292,0.032,0.0408,0.0463,0.0546,0.06,0.0638,0.0655,0.0689,0.0612,0.0594,0.0438,0.0559,0.0285,0.0248,0.0171,0.002,0.0017,-0.0085,-0.0082,-0.008,-0.0047,0,0,0,0,0]}]]